EW4729 Weather Reports


time (UTC)temp
C
wind
direction
speed
KPH
gust
KPH
rain 1hr
cm
rain 24hr
cm
rain mn
cm
humidity
%
barometer
mb
20260510011602 26 0 0.0 0.0 0.00 0.00 0.00 74 1008.9
20260510011053 26 0 0.0 0.0 0.00 0.00 0.00 74 1008.9
20260510010553 26 0 0.0 0.0 0.00 0.00 0.00 74 1009.1
20260510010112 26 0 0.0 0.0 0.00 0.00 0.00 73 1009.1
20260510005554 26 0 0.0 0.0 0.00 0.00 0.00 72 1009.0
20260510005053 26 0 0.0 0.0 0.00 0.00 0.00 71 1009.1
20260510004559 27 0 0.0 0.0 0.00 0.00 0.00 71 1009.1
20260510004053 27 0 0.0 6.4 0.00 0.00 0.00 70 1009.3
20260510003553 27 0 0.0 8.0 0.00 0.00 0.00 71 1009.1
20260510003057 27 256 1.6 8.0 0.00 0.00 0.00 70 1009.0
20260510002553 27 257 3.2 8.0 0.00 0.00 0.00 69 1009.0
20260510002053 26 0 0.0 0.0 0.00 0.00 0.00 69 1009.2
20260510001557 26 0 0.0 0.0 0.00 0.00 0.00 68 1009.1
20260510001053 26 0 0.0 0.0 0.00 0.00 0.00 69 1009.1
20260510000553 26 0 0.0 0.0 0.00 0.00 0.00 69 1009.1
20260510000106 26 0 0.0 0.0 0.00 0.00 0.00 69 1009.2
20260509235553 26 0 0.0 4.8 0.00 0.00 0.00 69 1008.9
20260509235053 26 0 0.0 4.8 0.00 0.00 0.00 68 1009.3
20260509234559 26 0 1.6 4.8 0.00 0.00 0.00 67 1008.8
20260509234055 26 0 0.0 6.4 0.00 0.00 0.00 66 1009.1
20260509233552 26 68 1.6 11.3 0.00 0.00 0.00 66 1008.7
20260509233052 26 64 1.6 11.3 0.00 0.00 0.00 66 1008.8
20260509232554 27 91 3.2 8.0 0.00 0.00 0.00 65 1009.0
20260509232054 27 61 3.2 6.4 0.00 0.00 0.00 65 1009.2
20260509231557 27 63 3.2 8.0 0.00 0.00 0.00 65 1008.8
20260509231053 27 80 3.2 14.5 0.00 0.00 0.00 65 1008.9
20260509230553 27 35 4.8 14.5 0.00 0.00 0.00 64 1009.0
20260509230053 28 15 3.2 14.5 0.00 0.00 0.00 65 1009.3
20260509225554 28 65 3.2 17.7 0.00 0.00 0.00 65 1009.3
20260509225053 29 59 6.4 17.7 0.00 0.00 0.00 63 1008.9
20260509224556 30 32 4.8 16.1 0.00 0.00 0.00 62 1008.9
20260509224056 31 23 4.8 20.9 0.00 0.00 0.00 60 1008.9
20260509223553 32 81 6.4 20.9 0.00 0.00 0.00 59 1008.9
20260509223101 32 16 6.4 19.3 0.00 0.00 0.00 57 1008.7
20260509222552 33 0 0.0 8.0 0.00 0.00 0.00 55 1008.5
20260509222053 33 159 1.6 8.0 0.00 0.00 0.00 55 1008.3
20260509221552 33 0 0.0 8.0 0.00 0.00 0.00 55 1008.3
20260509221053 33 156 0.0 8.0 0.00 0.00 0.00 55 1008.3
20260509220554 33 202 3.2 12.9 0.00 0.00 0.00 56 1008.1
20260509220057 33 226 6.4 12.9 0.00 0.00 0.00 57 1007.9
20260509215554 33 153 1.6 12.9 0.00 0.00 0.00 57 1008.0
20260509215054 33 0 3.2 12.9 0.00 0.00 0.00 58 1007.8
20260509214552 33 216 6.4 12.9 0.00 0.00 0.00 57 1008.0
20260509214053 33 227 1.6 8.0 0.00 0.00 0.00 57 1008.2
20260509213553 32 214 0.0 9.7 0.00 0.00 0.00 59 1008.2
20260509213055 32 0 0.0 9.7 0.00 0.00 0.00 58 1008.4
20260509212553 32 247 3.2 9.7 0.00 0.00 0.00 59 1008.3
20260509212053 32 198 3.2 9.7 0.00 0.00 0.00 58 1008.5
20260509211601 32 221 3.2 12.9 0.00 0.00 0.00 60 1008.5
20260509211053 32 198 4.8 12.9 0.00 0.00 0.00 59 1008.5
20260509210556 33 260 4.8 12.9 0.00 0.00 0.00 60 1008.6
20260509210107 32 251 3.2 12.9 0.00 0.00 0.00 61 1008.7
20260509205552 32 232 3.2 8.0 0.00 0.00 0.00 61 1008.9
20260509205054 32 226 1.6 12.9 0.00 0.00 0.00 63 1008.9
20260509204601 32 254 1.6 12.9 0.00 0.00 0.00 61 1008.9
20260509204053 32 249 0.0 6.4 0.00 0.00 0.00 63 1009.0
20260509203553 32 89 0.0 9.7 0.00 0.00 0.00 63 1009.1
20260509203059 32 360 1.6 11.3 0.00 0.00 0.00 64 1009.2
20260509202552 32 275 3.2 11.3 0.00 0.00 0.00 62 1009.3
20260509202054 32 268 3.2 9.7 0.00 0.00 0.00 61 1009.3
20260509201609 32 288 4.8 12.9 0.00 0.00 0.00 61 1009.2
20260509201055 32 0 4.8 12.9 0.00 0.00 0.00 62 1009.2
20260509200553 32 0 3.2 9.7 0.00 0.00 0.00 61 1009.2
20260509200107 32 360 3.2 16.1 0.00 0.00 0.00 62 1009.3
20260509195556 32 266 1.6 16.1 0.00 0.00 0.00 61 1009.3
20260509195057 32 273 1.6 12.9 0.00 0.00 0.00 62 1009.4
20260509194605 32 277 4.8 14.5 0.00 0.00 0.00 65 1009.4
20260509194053 32 287 9.7 14.5 0.00 0.00 0.00 66 1009.4
20260509193553 32 259 3.2 14.5 0.00 0.00 0.00 65 1009.4
20260509193127 32 0 4.8 14.5 0.00 0.00 0.00 66 1009.4
20260509192555 31 300 1.6 17.7 0.00 0.00 0.00 67 1009.5
20260509192053 31 327 1.6 17.7 0.00 0.00 0.00 66 1009.5
20260509191601 31 250 9.7 17.7 0.00 0.00 0.00 67 1009.5
20260509191052 31 251 4.8 14.5 0.00 0.00 0.00 66 1009.7
20260509190552 31 265 4.8 14.5 0.00 0.00 0.00 68 1009.8
20260509190057 31 245 6.4 14.5 0.00 0.00 0.00 68 1009.9
20260509185554 31 257 3.2 14.5 0.00 0.00 0.00 70 1009.9
20260509185053 31 259 4.8 16.1 0.00 0.00 0.00 67 1010.0
20260509184608 31 267 6.4 16.1 0.00 0.00 0.00 69 1010.0
20260509184052 31 254 8.0 16.1 0.00 0.00 0.00 68 1010.0
20260509183553 31 224 8.0 16.1 0.00 0.00 0.00 68 1010.1
20260509183059 31 248 3.2 16.1 0.00 0.00 0.00 67 1010.2
20260509182555 31 263 8.0 14.5 0.00 0.00 0.00 69 1010.3
20260509182054 31 227 4.8 14.5 0.00 0.00 0.00 71 1010.3
20260509181621 30 198 3.2 14.5 0.00 0.00 0.00 70 1010.4
20260509181053 30 209 4.8 14.5 0.00 0.00 0.00 70 1010.6
20260509180555 30 231 4.8 12.9 0.00 0.00 0.00 71 1010.7
20260509175553 30 182 1.6 9.7 0.00 0.00 0.00 75 1010.8
20260509175053 30 179 4.8 9.7 0.00 0.00 0.00 75 1010.8
20260509174559 30 140 3.2 12.9 0.00 0.00 0.00 74 1010.8
20260509174055 29 179 4.8 12.9 0.00 0.00 0.00 75 1010.9
20260509173552 29 0 4.8 11.3 0.00 0.00 0.00 74 1011.0
20260509173103 29 266 3.2 11.3 0.00 0.00 0.00 75 1011.0
20260509172553 29 0 6.4 11.3 0.00 0.00 0.00 76 1011.1
20260509172055 28 258 0.0 0.0 0.00 0.00 0.00 78 1011.2
20260509171556 28 0 0.0 0.0 0.00 0.00 0.00 79 1011.3
20260509171052 28 0 0.0 3.2 0.00 0.00 0.00 80 1011.4
20260509170553 28 0 0.0 3.2 0.00 0.00 0.00 79 1011.3
20260509170055 28 0 0.0 6.4 0.00 0.00 0.00 79 1011.3
20260509165553 28 0 0.0 6.4 0.00 0.00 0.00 79 1011.3
20260509165056 28 191 1.6 6.4 0.00 0.00 0.00 80 1011.3
20260509164553 28 0 0.0 0.0 0.00 0.00 0.00 80 1011.4
20260509164052 28 0 0.0 4.8 0.00 0.00 0.00 80 1011.4
20260509163553 28 0 0.0 4.8 0.00 0.00 0.00 80 1011.3
20260509163054 28 0 1.6 4.8 0.00 0.00 0.00 81 1011.3
20260509162557 27 0 0.0 6.4 0.00 0.00 0.00 80 1011.1
20260509162055 27 0 0.0 6.4 0.00 0.00 0.00 81 1011.2
20260509161557 27 336 0.0 6.4 0.00 0.00 0.00 82 1011.0
20260509161052 27 0 1.6 6.4 0.00 0.00 0.00 81 1010.9
20260509160555 27 251 0.0 8.0 0.00 0.00 0.00 82 1010.9
20260509160055 27 0 0.0 8.0 0.00 0.00 0.00 83 1010.9
20260509155553 27 250 0.0 6.4 0.00 0.00 0.00 84 1011.0
20260509155052 27 0 0.0 4.8 0.00 0.00 0.00 84 1011.1
20260509154559 27 0 0.0 4.8 0.00 0.00 0.00 84 1011.1
20260509154053 27 0 0.0 1.6 0.00 0.00 0.00 84 1011.1
20260509153553 26 0 0.0 4.8 0.00 0.00 0.00 85 1011.2
20260509153059 26 0 0.0 6.4 0.00 0.00 0.00 85 1011.1
20260509152553 26 0 3.2 6.4 0.00 0.00 0.00 86 1010.9
20260509152056 26 0 0.0 6.4 0.00 0.00 0.00 87 1011.1
20260509151605 26 0 1.6 12.9 0.00 0.00 0.00 88 1011.0
20260509151053 26 235 4.8 12.9 0.00 0.00 0.00 88 1011.1
20260509150553 26 236 0.0 11.3 0.00 0.00 0.00 91 1011.0
20260509150100 26 250 3.2 11.3 0.00 0.00 0.00 91 1011.1
20260509145553 25 224 3.2 11.3 0.00 0.00 0.00 92 1011.0
20260509145053 25 236 1.6 4.8 0.00 0.00 0.00 93 1010.8
20260509144611 25 0 0.0 8.0 0.00 0.00 0.00 93 1010.6
20260509144055 25 0 1.6 8.0 0.00 0.00 0.00 94 1010.6
20260509143553 25 148 0.0 4.8 0.00 0.00 0.00 94 1010.5
20260509143124 25 0 0.0 0.0 0.00 0.00 0.00 94 1010.3
20260509142553 25 0 0.0 0.0 0.00 0.00 0.00 94 1010.3
20260509142055 24 0 0.0 0.0 0.00 0.00 0.00 95 1010.3
20260509141558 24 0 0.0 4.8 0.00 0.00 0.00 95 1010.2
20260509141052 24 0 0.0 6.4 0.00 0.00 0.00 95 1010.0
20260509140552 24 128 3.2 6.4 0.00 0.00 0.00 95 1010.2
20260509140107 24 123 0.0 3.2 0.00 0.00 0.00 95 1010.2
20260509135551 24 0 0.0 4.8 0.00 0.00 0.00 95 1010.1
20260509135057 24 123 1.6 9.7 0.00 0.00 0.00 95 1010.1
20260509134613 24 146 3.2 11.3 0.00 0.00 0.00 95 1010.2
20260509134051 23 173 6.4 11.3 0.00 0.00 0.00 95 1010.3
20260509133554 23 184 4.8 9.7 0.00 0.00 0.00 95 1010.5
20260509133108 23 191 4.8 11.3 0.00 0.00 0.00 95 1010.6
20260509132552 23 200 3.2 12.9 0.00 0.00 0.00 95 1011.0
20260509132055 23 191 8.0 14.5 0.00 0.00 0.00 95 1010.8
20260509131610 23 178 8.0 14.5 0.00 0.00 0.00 95 1010.7
20260509131053 23 186 8.0 14.5 0.00 0.00 0.00 95 1010.8
20260509130551 23 188 6.4 9.7 0.00 0.00 0.00 95 1011.0
20260509130059 23 198 4.8 8.0 0.00 0.00 0.00 95 1011.1
20260509125554 23 182 3.2 8.0 0.00 0.00 0.00 95 1011.1
20260509125052 23 0 0.0 0.0 0.00 0.00 0.00 95 1011.1
20260509124552 23 0 0.0 0.0 0.00 0.00 0.00 95 1011.1
20260509124053 23 0 0.0 0.0 0.00 0.00 0.00 95 1011.2
20260509123555 23 0 0.0 0.0 0.00 0.00 0.00 95 1011.2
20260509123120 23 0 0.0 0.0 0.00 0.00 0.00 95 1011.5
20260509122554 23 0 0.0 0.0 0.00 0.00 0.00 95 1011.5
20260509122054 23 0 0.0 0.0 0.00 0.00 0.00 95 1011.6
20260509121610 23 0 0.0 0.0 0.00 0.00 0.00 95 1011.3
20260509121053 23 0 0.0 0.0 0.00 0.00 0.00 95 1011.2
20260509120553 23 0 0.0 0.0 0.00 0.00 0.00 95 1011.2
20260509120112 23 0 0.0 0.0 0.00 0.00 0.00 95 1011.3
20260509115552 23 0 0.0 0.0 0.00 0.00 0.00 95 1011.1
20260509115054 23 0 0.0 0.0 0.00 0.00 0.00 95 1010.9
20260509114558 23 0 0.0 0.0 0.00 0.00 0.00 95 1010.7
20260509114056 23 0 0.0 0.0 0.00 0.00 0.00 95 1010.4
20260509113555 23 0 0.0 0.0 0.00 0.00 0.00 95 1010.4
20260509113055 23 0 0.0 0.0 0.00 0.00 0.00 95 1010.6
20260509112552 23 0 0.0 0.0 0.00 0.00 0.00 95 1010.7
20260509112051 23 0 0.0 0.0 0.00 0.00 0.00 95 1010.8
20260509111604 23 0 0.0 0.0 0.00 0.00 0.00 95 1010.9
20260509111052 23 0 0.0 0.0 0.00 0.00 0.00 95 1010.8
20260509110551 23 0 0.0 0.0 0.00 0.00 0.00 95 1010.7
20260509105551 23 0 0.0 0.0 0.00 0.00 0.00 95 1010.7
20260509105051 23 0 0.0 0.0 0.00 0.00 0.00 95 1010.7
20260509104553 23 0 0.0 0.0 0.00 0.00 0.00 95 1010.6
20260509104052 23 0 0.0 0.0 0.00 0.00 0.00 95 1010.6
20260509103551 23 0 0.0 0.0 0.00 0.00 0.00 95 1010.4
20260509103102 23 0 0.0 0.0 0.00 0.00 0.00 95 1010.5
20260509102551 23 0 0.0 0.0 0.00 0.00 0.00 95 1010.4
20260509102054 23 0 0.0 0.0 0.00 0.00 0.00 95 1010.3
20260509101620 23 0 0.0 0.0 0.00 0.00 0.00 95 1010.2
20260509101050 23 0 0.0 0.0 0.00 0.00 0.00 95 1010.1
20260509100554 23 0 0.0 0.0 0.00 0.00 0.00 95 1010.1
20260509100059 23 0 0.0 0.0 0.00 0.00 0.00 95 1010.1
20260509095553 23 0 0.0 0.0 0.00 0.00 0.00 95 1010.2
20260509095052 23 0 0.0 0.0 0.00 0.00 0.00 94 1010.3
20260509094604 23 0 0.0 0.0 0.00 0.00 0.00 95 1010.4
20260509094051 23 0 0.0 0.0 0.00 0.00 0.00 94 1010.3
20260509093552 23 0 0.0 0.0 0.00 0.00 0.00 95 1010.2
20260509093107 23 0 0.0 0.0 0.00 0.00 0.00 94 1010.1
20260509092551 23 0 0.0 0.0 0.00 0.00 0.00 94 1010.0
20260509092053 23 0 0.0 4.8 0.00 0.00 0.00 94 1010.0
20260509091606 23 0 0.0 4.8 0.00 0.00 0.00 94 1009.9
20260509091053 23 0 0.0 4.8 0.00 0.00 0.00 94 1010.0
20260509090553 23 0 0.0 9.7 0.00 0.00 0.00 94 1010.0
20260509085552 23 141 0.0 6.4 0.00 0.00 0.00 94 1010.0
20260509085052 23 0 0.0 6.4 0.00 0.00 0.00 94 1010.0
20260509084601 23 0 0.0 3.2 0.00 0.00 0.00 94 1009.9
20260509084053 23 0 0.0 3.2 0.00 0.00 0.00 94 1009.9
20260509083552 23 0 0.0 3.2 0.00 0.00 0.00 94 1010.1
20260509083104 23 0 0.0 3.2 0.00 0.00 0.00 94 1010.3
20260509082554 23 0 0.0 3.2 0.00 0.00 0.00 94 1010.3
20260509082053 23 0 0.0 3.2 0.00 0.00 0.00 94 1010.2
20260509081611 23 171 1.6 3.2 0.00 0.00 0.00 94 1010.2
20260509081052 23 0 0.0 8.0 0.00 0.00 0.00 94 1010.1
20260509080552 23 0 0.0 8.0 0.00 0.00 0.00 94 1010.1
20260509080056 23 178 1.6 9.7 0.00 0.00 0.00 94 1010.0
20260509075552 23 0 3.2 11.3 0.00 0.00 0.00 94 1010.0
20260509075056 23 186 4.8 11.3 0.00 0.00 0.00 94 1010.2
20260509074559 23 170 4.8 11.3 0.00 0.00 0.00 94 1010.2
20260509074051 23 181 1.6 8.0 0.00 0.00 0.00 94 1010.3
20260509073557 23 177 0.0 11.3 0.00 0.00 0.00 94 1010.1
20260509073107 23 178 4.8 11.3 0.00 0.00 0.00 94 1010.0
20260509072555 23 155 1.6 9.7 0.00 0.00 0.00 94 1010.0
20260509072055 23 0 3.2 16.1 0.00 0.00 0.00 94 1010.2
20260509071558 23 192 3.2 16.1 0.00 0.00 0.00 94 1010.2
20260509071051 23 168 4.8 14.5 0.00 0.00 0.00 94 1010.3
20260509070551 23 181 6.4 12.9 0.00 0.00 0.00 94 1010.1
20260509070056 23 197 6.4 14.5 0.00 0.00 0.00 93 1010.0
20260509065550 23 163 6.4 14.5 0.00 0.00 0.00 93 1010.0
20260509065054 23 138 4.8 11.3 0.00 0.00 0.00 93 1010.0
20260509064611 23 162 4.8 16.1 0.00 0.00 0.00 93 1010.0
20260509064052 23 203 6.4 16.1 0.00 0.00 0.00 93 1009.9
20260509063551 23 196 4.8 14.5 0.00 0.00 0.00 93 1009.9
20260509063057 23 146 4.8 14.5 0.00 0.00 0.00 93 1010.1
20260509062554 23 159 3.2 14.5 0.00 0.00 0.00 93 1010.1
20260509062051 23 152 6.4 14.5 0.00 0.00 0.00 93 1010.0
20260509061559 23 146 3.2 11.3 0.00 0.00 0.00 93 1010.2
20260509061056 23 140 1.6 11.3 0.00 0.00 0.00 93 1010.3
20260509060552 23 0 1.6 11.3 0.00 0.00 0.00 93 1010.5
20260509060054 23 0 0.0 8.0 0.00 0.00 0.00 93 1010.7
20260509055552 23 0 1.6 8.0 0.00 0.00 0.00 93 1010.8
20260509055057 23 157 1.6 6.4 0.00 0.00 0.00 93 1010.8
20260509054603 23 140 0.0 8.0 0.00 0.00 0.00 93 1010.8
20260509054050 23 0 1.6 8.0 0.00 0.00 0.00 92 1010.7
20260509053551 23 163 3.2 8.0 0.00 0.00 0.00 92 1010.8
20260509053110 23 159 1.6 8.0 0.00 0.00 0.00 92 1010.9
20260509052555 23 141 1.6 8.0 0.00 0.00 0.00 92 1010.9
20260509052055 23 0 0.0 6.4 0.00 0.00 0.00 92 1010.9
20260509051558 23 0 0.0 6.4 0.00 0.00 0.00 92 1010.8
20260509051054 23 0 0.0 11.3 0.00 0.00 0.00 92 1010.9
20260509050556 23 0 1.6 11.3 0.00 0.00 0.00 92 1010.9
20260509050056 23 143 0.0 6.4 0.00 0.00 0.00 92 1010.8
20260509045553 23 162 1.6 11.3 0.00 0.00 0.00 92 1010.7
20260509045052 23 0 1.6 11.3 0.00 0.00 0.00 92 1010.7
20260509044554 23 0 0.0 8.0 0.00 0.00 0.00 92 1010.6
20260509044054 23 133 0.0 6.4 0.00 0.00 0.00 92 1010.7
20260509043551 23 0 0.0 9.7 0.00 0.00 0.00 92 1010.7
20260509043054 23 0 0.0 9.7 0.00 0.00 0.00 92 1010.5
20260509042552 23 0 1.6 9.7 0.00 0.00 0.00 92 1010.6
20260509042056 23 130 0.0 6.4 0.00 0.00 0.00 92 1010.5
20260509041617 23 125 0.0 4.8 0.00 0.00 0.00 91 1010.4
20260509041052 23 0 0.0 6.4 0.00 0.00 0.00 91 1010.5
20260509040557 23 0 0.0 6.4 0.00 0.00 0.00 91 1010.4
20260509040055 23 0 0.0 4.8 0.00 0.00 0.00 91 1010.5
20260509035554 23 0 0.0 6.4 0.00 0.00 0.00 91 1010.5
20260509035055 23 0 0.0 6.4 0.00 0.00 0.00 91 1010.6
20260509034553 23 0 0.0 6.4 0.00 0.00 0.00 91 1010.6
20260509034054 23 111 0.0 6.4 0.00 0.00 0.00 91 1010.6
20260509033554 23 0 0.0 6.4 0.00 0.00 0.00 91 1010.5
20260509033053 23 113 0.0 4.8 0.00 0.00 0.00 91 1010.4
20260509032554 23 0 0.0 4.8 0.00 0.00 0.00 91 1010.5
20260509032055 23 0 0.0 4.8 0.00 0.00 0.00 91 1010.3
20260509031555 23 0 0.0 4.8 0.00 0.00 0.00 91 1010.5
20260509031058 23 0 0.0 4.8 0.00 0.00 0.00 91 1010.3
20260509030554 23 109 0.0 6.4 0.00 0.00 0.00 91 1010.3
20260509030056 23 0 0.0 8.0 0.00 0.00 0.00 91 1010.1
20260509025553 23 0 1.6 8.0 0.00 0.00 0.00 91 1009.9
20260509025053 23 128 1.6 9.7 0.00 0.00 0.00 91 1009.9
20260509024551 23 0 1.6 9.7 0.00 0.00 0.00 91 1010.0
20260509024053 23 131 1.6 9.7 0.00 0.00 0.00 91 1009.9
20260509023553 23 0 1.6 11.3 0.00 0.00 0.00 91 1010.0
20260509023107 23 118 4.8 11.3 0.00 0.00 0.00 90 1009.9
20260509022552 23 0 0.0 9.7 0.00 0.00 0.00 90 1009.8
20260509022052 23 115 1.6 9.7 0.00 0.00 0.00 90 1010.0
20260509021555 23 115 1.6 9.7 0.00 0.00 0.00 90 1009.8
20260509021052 23 108 1.6 9.7 0.00 0.00 0.00 90 1009.8
20260509020552 23 107 0.0 9.7 0.00 0.00 0.00 90 1009.9
20260509020059 23 0 1.6 9.7 0.00 0.00 0.00 90 1009.6
20260509015554 23 138 0.0 9.7 0.00 0.00 0.00 90 1009.6
20260509015055 23 0 1.6 9.7 0.00 0.00 0.00 90 1009.5
20260509014553 23 0 3.2 9.7 0.00 0.00 0.00 90 1009.5
20260509014052 23 0 0.0 6.4 0.00 0.00 0.00 90 1009.5
20260509013554 23 101 1.6 12.9 0.00 0.00 0.00 90 1009.5
20260509013055 23 108 1.6 14.5 0.00 0.00 0.00 90 1009.4
20260509012553 23 86 1.6 14.5 0.00 0.00 0.00 90 1009.3
20260509012056 23 86 1.6 14.5 0.00 0.00 0.00 90 1009.2